GEFSSE_prec_meanprec_048.txt.gz
QPF
0.00 0.00 0.00 0.00 0.00 0.00 0.00 0.00 0.00 0.00 0.00 0.00 0.00 0.00 0.00 0.00 0.00 0.00 0.00 0.00 0.00 0.00 0.00 0.00 0.00 0.00 0.00 0.00 0.00 0.00 0.00 0.00 0.00 0.00 0.00 0.00 0.00 0.00 0.00 0.01 0.01 0.02 0.01
0.00 0.00 0.00 0.00 0.00 0.00 0.00 0.00 0.00 0.00 0.00 0.00 0.00 0.00 0.00 0.00 0.00 0.00 0.00 0.00 0.00 0.00 0.00 0.00 0.00 0.00 0.00 0.00 0.00 0.00 0.00 0.00 0.00 0.00 0.00 0.00 0.00 0.00 0.00 0.00 0.01 0.01 0.00
0.00 0.00 0.00 0.00 0.00 0.00 0.00 0.00 0.00 0.00 0.00 0.00 0.00 0.00 0.00 0.00 0.00 0.00 0.00 0.00 0.00 0.00 0.00 0.00 0.00 0.00 0.00 0.00 0.00 0.00 0.00 0.00 0.00 0.00 0.00 0.00 0.00 0.00 0.00 0.00 0.00 0.00 0.00
0.00 0.00 0.00 0.00 0.00 0.00 0.00 0.00 0.00 0.00 0.00 0.00 0.00 0.00 0.00 0.00 0.00 0.00 0.00 0.00 0.00 0.00 0.00 0.00 0.00 0.00 0.00 0.00 0.00 0.00 0.00 0.00 0.00 0.00 0.00 0.00 0.00 0.00 0.01 0.01 0.00 0.00 0.00
0.00 0.00 0.00 0.00 0.00 0.00 0.00 0.00 0.00 0.00 0.00 0.00 0.00 0.00 0.00 0.00 0.00 0.00 0.00 0.00 0.00 0.00 0.00 0.00 0.00 0.00 0.00 0.00 0.00 0.00 0.00 0.00 0.00 0.00 0.00 0.00 0.01 0.01 0.01 0.04 0.04 0.03 0.02
0.00 0.00 0.00 0.00 0.00 0.00 0.00 0.00 0.00 0.00 0.00 0.00 0.00 0.00 0.00 0.00 0.00 0.00 0.00 0.00 0.00 0.00 0.00 0.00 0.00 0.00 0.00 0.00 0.00 0.00 0.00 0.00 0.00 0.00 0.00 0.00 0.01 0.01 0.02 0.08 0.10 0.09 0.07
0.00 0.00 0.00 0.00 0.00 0.00 0.00 0.00 0.00 0.00 0.00 0.00 0.00 0.00 0.00 0.00 0.00 0.00 0.00 0.00 0.00 0.00 0.00 0.00 0.00 0.00 0.00 0.00 0.00 0.00 0.00 0.00 0.00 0.00 0.00 0.00 0.00 0.00 0.01 0.07 0.13 0.13 0.11
0.00 0.00 0.00 0.00 0.00 0.00 0.00 0.00 0.00 0.00 0.00 0.00 0.00 0.00 0.00 0.00 0.00 0.00 0.00 0.00 0.00 0.00 0.00 0.00 0.00 0.00 0.00 0.00 0.01 0.00 0.00 0.00 0.00 0.00 0.00 0.00 0.00 0.00 0.00 0.06 0.12 0.13 0.12
0.00 0.00 0.00 0.00 0.00 0.00 0.00 0.00 0.00 0.00 0.00 0.00 0.00 0.00 0.00 0.00 0.00 0.00 0.00 0.00 0.00 0.00 0.00 0.00 0.00 0.00 0.00 0.00 0.00 0.01 0.01 0.01 0.01 0.01 0.00 0.01 0.00 0.00 0.00 0.03 0.08 0.12 0.12
0.00 0.00 0.00 0.00 0.00 0.00 0.00 0.00 0.00 0.00 0.00 0.00 0.00 0.00 0.00 0.00 0.00 0.00 0.00 0.00 0.00 0.01 0.01 0.01 0.01 0.01 0.00 0.00 0.01 0.01 0.01 0.01 0.01 0.01 0.02 0.01 0.02 0.02 0.02 0.02 0.06 0.09 0.12
0.00 0.00 0.00 0.00 0.00 0.00 0.00 0.00 0.00 0.00 0.00 0.00 0.00 0.00 0.00 0.00 0.00 0.00 0.00 0.00 0.00 0.01 0.01 0.01 0.01 0.01 0.01 0.01 0.01 0.01 0.01 0.01 0.00 0.01 0.01 0.01 0.02 0.03 0.04 0.04 0.05 0.07 0.10
0.00 0.00 0.00 0.00 0.00 0.00 0.00 0.00 0.00 0.00 0.00 0.00 0.01 0.01 0.01 0.01 0.00 0.00 0.00 0.00 0.00 0.00 0.01 0.01 0.02 0.02 0.02 0.02 0.04 0.05 0.02 0.01 0.01 0.01 0.01 0.02 0.04 0.07 0.08 0.07 0.07 0.07 0.08
0.00 0.00 0.00 0.00 0.00 0.00 0.00 0.00 0.00 0.00 0.00 0.00 0.01 0.01 0.01 0.01 0.00 0.00 0.00 0.00 0.00 0.00 0.00 0.01 0.03 0.04 0.05 0.06 0.08 0.08 0.05 0.04 0.03 0.02 0.01 0.02 0.05 0.10 0.13 0.10 0.09 0.08 0.07
0.00 0.00 0.00 0.00 0.00 0.00 0.00 0.00 0.00 0.00 0.00 0.00 0.00 0.00 0.01 0.01 0.01 0.01 0.01 0.01 0.00 0.01 0.01 0.02 0.03 0.05 0.08 0.10 0.10 0.09 0.10 0.10 0.07 0.07 0.06 0.03 0.05 0.10 0.16 0.11 0.10 0.10 0.09
0.00 0.00 0.00 0.00 0.00 0.00 0.00 0.00 0.00 0.00 0.00 0.00 0.00 0.00 0.01 0.01 0.02 0.02 0.02 0.02 0.02 0.03 0.03 0.04 0.05 0.06 0.10 0.14 0.12 0.10 0.12 0.12 0.09 0.09 0.07 0.05 0.06 0.10 0.15 0.13 0.10 0.10 0.09
0.00 0.00 0.00 0.00 0.00 0.00 0.00 0.00 0.01 0.01 0.01 0.01 0.01 0.02 0.03 0.04 0.04 0.05 0.06 0.05 0.04 0.06 0.07 0.09 0.11 0.15 0.17 0.17 0.14 0.13 0.12 0.12 0.12 0.11 0.09 0.07 0.06 0.08 0.11 0.13 0.11 0.10 0.09
0.00 0.00 0.01 0.01 0.01 0.01 0.01 0.01 0.01 0.02 0.02 0.02 0.03 0.06 0.06 0.07 0.08 0.09 0.08 0.07 0.08 0.10 0.11 0.12 0.15 0.17 0.16 0.15 0.13 0.13 0.11 0.10 0.10 0.10 0.11 0.10 0.07 0.05 0.05 0.06 0.07 0.07 0.07
0.00 0.01 0.01 0.02 0.02 0.01 0.02 0.02 0.02 0.02 0.02 0.03 0.04 0.08 0.08 0.10 0.12 0.11 0.08 0.08 0.12 0.16 0.18 0.17 0.18 0.20 0.22 0.21 0.17 0.12 0.11 0.11 0.09 0.08 0.07 0.07 0.07 0.05 0.03 0.03 0.03 0.04 0.04
0.01 0.02 0.01 0.01 0.01 0.01 0.02 0.02 0.02 0.02 0.02 0.03 0.05 0.07 0.07 0.08 0.10 0.12 0.10 0.09 0.12 0.16 0.16 0.16 0.19 0.22 0.22 0.23 0.21 0.17 0.14 0.12 0.08 0.06 0.04 0.03 0.04 0.04 0.02 0.02 0.02 0.01 0.01
0.02 0.03 0.02 0.01 0.01 0.01 0.01 0.01 0.01 0.01 0.02 0.03 0.04 0.05 0.06 0.06 0.08 0.11 0.09 0.08 0.12 0.13 0.14 0.17 0.17 0.19 0.19 0.22 0.22 0.18 0.13 0.09 0.07 0.04 0.03 0.02 0.02 0.02 0.01 0.01 0.01 0.00 0.00
0.01 0.01 0.01 0.00 0.00 0.00 0.00 0.00 0.00 0.01 0.01 0.01 0.02 0.02 0.03 0.03 0.04 0.06 0.07 0.08 0.10 0.10 0.11 0.15 0.18 0.16 0.15 0.20 0.22 0.17 0.13 0.10 0.06 0.04 0.03 0.03 0.02 0.01 0.00 0.01 0.01 0.01 0.01
0.00 0.00 0.00 0.00 0.00 0.00 0.00 0.00 0.00 0.00 0.00 0.00 0.00 0.01 0.01 0.01 0.02 0.02 0.02 0.03 0.05 0.07 0.07 0.09 0.12 0.13 0.13 0.18 0.20 0.20 0.13 0.09 0.07 0.05 0.04 0.03 0.02 0.02 0.01 0.01 0.01 0.03 0.02
0.00 0.01 0.00 0.00 0.00 0.00 0.00 0.00 0.00 0.00 0.00 0.00 0.00 0.00 0.00 0.01 0.01 0.01 0.01 0.01 0.02 0.04 0.04 0.06 0.09 0.10 0.10 0.14 0.16 0.17 0.13 0.10 0.09 0.05 0.04 0.04 0.05 0.05 0.05 0.04 0.03 0.03 0.04
0.00 0.00 0.00 0.00 0.00 0.00 0.00 0.00 0.00 0.00 0.00 0.00 0.00 0.00 0.00 0.00 0.00 0.00 0.00 0.00 0.01 0.01 0.02 0.03 0.04 0.07 0.10 0.11 0.12 0.13 0.12 0.11 0.10 0.08 0.07 0.06 0.06 0.07 0.07 0.05 0.03 0.03 0.03
0.00 0.00 0.00 0.00 0.00 0.00 0.00 0.00 0.00 0.00 0.00 0.00 0.00 0.00 0.00 0.00 0.00 0.00 0.00 0.00 0.00 0.00 0.01 0.01 0.02 0.05 0.07 0.09 0.11 0.10 0.09 0.10 0.09 0.10 0.09 0.09 0.09 0.07 0.07 0.06 0.05 0.05 0.05
0.00 0.00 0.00 0.00 0.01 0.01 0.01 0.01 0.01 0.01 0.01 0.00 0.00 0.00 0.00 0.00 0.00 0.00 0.00 0.00 0.00 0.01 0.01 0.01 0.02 0.03 0.05 0.06 0.08 0.08 0.07 0.07 0.07 0.08 0.09 0.10 0.12 0.11 0.10 0.08 0.06 0.06 0.07

GEFSSE_prec_meanprec_054.txt.gz
QPF
0.00 0.00 0.00 0.00 0.00 0.00 0.00 0.00 0.00 0.00 0.00 0.00 0.00 0.00 0.00 0.00 0.00 0.00 0.00 0.00 0.00 0.00 0.00 0.00 0.00 0.00 0.00 0.00 0.00 0.00 0.00 0.00 0.00 0.00 0.00 0.00 0.00 0.00 0.00 0.01 0.05 0.06 0.01
0.00 0.00 0.00 0.00 0.00 0.00 0.00 0.00 0.00 0.00 0.00 0.00 0.00 0.00 0.00 0.00 0.00 0.00 0.00 0.00 0.00 0.00 0.00 0.00 0.00 0.00 0.00 0.00 0.00 0.00 0.00 0.00 0.00 0.00 0.00 0.00 0.00 0.00 0.00 0.01 0.04 0.04 0.00
0.00 0.00 0.00 0.00 0.00 0.00 0.00 0.00 0.00 0.00 0.00 0.00 0.00 0.00 0.00 0.00 0.00 0.00 0.00 0.00 0.00 0.00 0.00 0.00 0.00 0.00 0.00 0.00 0.00 0.00 0.00 0.00 0.00 0.00 0.02 0.03 0.01 0.00 0.00 0.00 0.00 0.01 0.00
0.00 0.00 0.00 0.00 0.00 0.00 0.00 0.00 0.00 0.00 0.00 0.00 0.00 0.00 0.00 0.00 0.00 0.00 0.00 0.00 0.00 0.00 0.00 0.00 0.00 0.00 0.00 0.00 0.00 0.00 0.00 0.00 0.00 0.00 0.03 0.05 0.01 0.00 0.00 0.00 0.00 0.00 0.00
0.00 0.00 0.00 0.00 0.00 0.00 0.00 0.00 0.00 0.00 0.00 0.00 0.00 0.00 0.00 0.00 0.00 0.00 0.00 0.00 0.00 0.00 0.00 0.00 0.00 0.00 0.00 0.00 0.00 0.00 0.00 0.00 0.00 0.00 0.01 0.02 0.03 0.02 0.01 0.01 0.00 0.00 0.01
0.00 0.00 0.00 0.00 0.00 0.00 0.00 0.00 0.00 0.00 0.00 0.00 0.00 0.00 0.00 0.00 0.00 0.00 0.00 0.00 0.00 0.00 0.00 0.00 0.00 0.00 0.00 0.00 0.00 0.00 0.00 0.00 0.00 0.00 0.00 0.00 0.03 0.04 0.01 0.02 0.03 0.02 0.02
0.00 0.00 0.00 0.00 0.00 0.00 0.00 0.00 0.00 0.00 0.00 0.00 0.00 0.00 0.00 0.00 0.00 0.00 0.00 0.00 0.00 0.00 0.00 0.00 0.00 0.00 0.00 0.00 0.00 0.00 0.00 0.00 0.00 0.00 0.00 0.00 0.02 0.01 0.01 0.02 0.04 0.04 0.04
0.00 0.00 0.00 0.00 0.00 0.00 0.00 0.00 0.00 0.00 0.00 0.00 0.00 0.00 0.00 0.00 0.00 0.00 0.00 0.00 0.00 0.00 0.00 0.00 0.00 0.00 0.00 0.00 0.00 0.00 0.00 0.00 0.00 0.00 0.00 0.00 0.01 0.00 0.00 0.01 0.01 0.03 0.04
0.00 0.00 0.00 0.00 0.00 0.00 0.00 0.00 0.00 0.00 0.00 0.00 0.00 0.00 0.00 0.00 0.00 0.00 0.00 0.00 0.00 0.00 0.00 0.00 0.00 0.00 0.00 0.00 0.00 0.00 0.00 0.00 0.00 0.00 0.00 0.01 0.01 0.01 0.01 0.01 0.01 0.02 0.03
0.00 0.00 0.00 0.00 0.00 0.00 0.00 0.00 0.00 0.00 0.00 0.00 0.00 0.00 0.00 0.00 0.00 0.00 0.00 0.00 0.00 0.00 0.00 0.00 0.00 0.00 0.00 0.00 0.00 0.00 0.00 0.00 0.00 0.00 0.01 0.01 0.02 0.02 0.02 0.01 0.01 0.02 0.03
0.00 0.00 0.00 0.00 0.00 0.00 0.00 0.00 0.00 0.00 0.00 0.00 0.00 0.00 0.00 0.00 0.01 0.03 0.03 0.04 0.02 0.01 0.01 0.00 0.00 0.01 0.01 0.00 0.00 0.01 0.00 0.00 0.00 0.00 0.00 0.01 0.01 0.02 0.02 0.02 0.02 0.03 0.03
0.00 0.00 0.00 0.00 0.00 0.00 0.00 0.00 0.00 0.00 0.01 0.01 0.01 0.04 0.05 0.06 0.03 0.01 0.04 0.04 0.03 0.03 0.01 0.00 0.01 0.01 0.01 0.00 0.05 0.08 0.01 0.00 0.00 0.00 0.00 0.01 0.02 0.03 0.03 0.02 0.03 0.04 0.04
0.00 0.00 0.00 0.00 0.00 0.00 0.00 0.00 0.00 0.00 0.01 0.02 0.01 0.04 0.06 0.05 0.03 0.01 0.01 0.05 0.08 0.06 0.04 0.04 0.04 0.02 0.02 0.03 0.06 0.09 0.03 0.02 0.01 0.00 0.01 0.02 0.03 0.04 0.03 0.02 0.03 0.04 0.04
0.00 0.00 0.00 0.00 0.00 0.00 0.00 0.00 0.00 0.00 0.00 0.00 0.02 0.02 0.04 0.05 0.03 0.02 0.03 0.03 0.07 0.09 0.13 0.09 0.09 0.07 0.07 0.06 0.06 0.05 0.03 0.02 0.01 0.01 0.03 0.03 0.03 0.03 0.04 0.03 0.03 0.03 0.04
0.00 0.00 0.00 0.00 0.00 0.00 0.00 0.00 0.00 0.00 0.00 0.00 0.01 0.01 0.03 0.05 0.05 0.06 0.05 0.05 0.04 0.06 0.11 0.12 0.09 0.10 0.13 0.10 0.06 0.06 0.04 0.02 0.01 0.01 0.03 0.03 0.02 0.02 0.03 0.03 0.03 0.03 0.04
0.00 0.00 0.00 0.00 0.00 0.00 0.00 0.00 0.01 0.00 0.01 0.01 0.01 0.02 0.05 0.06 0.09 0.09 0.10 0.11 0.09 0.11 0.14 0.15 0.12 0.15 0.14 0.16 0.11 0.08 0.06 0.04 0.04 0.03 0.02 0.03 0.04 0.02 0.02 0.03 0.03 0.03 0.03
0.00 0.00 0.00 0.00 0.00 0.00 0.01 0.02 0.02 0.01 0.01 0.02 0.03 0.03 0.06 0.10 0.15 0.14 0.14 0.14 0.15 0.16 0.18 0.15 0.16 0.18 0.15 0.16 0.12 0.10 0.10 0.08 0.05 0.05 0.04 0.05 0.05 0.04 0.03 0.03 0.04 0.03 0.03
0.01 0.00 0.00 0.00 0.00 0.01 0.03 0.03 0.03 0.02 0.03 0.03 0.04 0.06 0.05 0.10 0.13 0.14 0.14 0.14 0.19 0.19 0.18 0.17 0.18 0.20 0.20 0.20 0.19 0.14 0.13 0.13 0.08 0.05 0.05 0.04 0.04 0.03 0.03 0.05 0.05 0.04 0.05
0.01 0.00 0.01 0.01 0.02 0.03 0.04 0.03 0.03 0.03 0.03 0.03 0.04 0.05 0.05 0.06 0.08 0.10 0.10 0.11 0.12 0.13 0.13 0.14 0.22 0.20 0.21 0.22 0.19 0.15 0.12 0.10 0.08 0.05 0.04 0.03 0.03 0.03 0.02 0.03 0.05 0.04 0.05
0.02 0.03 0.04 0.04 0.05 0.06 0.05 0.04 0.03 0.03 0.02 0.02 0.01 0.02 0.02 0.03 0.03 0.04 0.04 0.05 0.06 0.07 0.07 0.09 0.12 0.13 0.13 0.12 0.10 0.11 0.12 0.09 0.08 0.07 0.05 0.03 0.02 0.02 0.02 0.02 0.03 0.04 0.05
0.05 0.09 0.10 0.09 0.05 0.05 0.05 0.03 0.02 0.01 0.01 0.01 0.00 0.00 0.00 0.00 0.00 0.00 0.01 0.01 0.02 0.03 0.04 0.05 0.06 0.06 0.06 0.09 0.09 0.07 0.08 0.08 0.08 0.07 0.06 0.05 0.04 0.03 0.02 0.02 0.01 0.03 0.08
0.12 0.14 0.13 0.09 0.07 0.05 0.04 0.03 0.01 0.01 0.00 0.00 0.00 0.00 0.00 0.00 0.00 0.00 0.00 0.00 0.00 0.01 0.01 0.02 0.03 0.03 0.03 0.07 0.08 0.07 0.06 0.07 0.05 0.03 0.03 0.03 0.02 0.03 0.03 0.02 0.03 0.05 0.06
0.17 0.18 0.13 0.09 0.06 0.04 0.04 0.03 0.02 0.01 0.01 0.01 0.00 0.00 0.00 0.00 0.00 0.00 0.00 0.00 0.00 0.00 0.00 0.01 0.02 0.02 0.03 0.04 0.07 0.08 0.06 0.05 0.05 0.04 0.05 0.04 0.05 0.06 0.04 0.03 0.03 0.06 0.09
0.23 0.21 0.15 0.09 0.06 0.05 0.03 0.03 0.03 0.02 0.01 0.01 0.00 0.00 0.00 0.00 0.00 0.00 0.00 0.00 0.00 0.00 0.00 0.01 0.01 0.02 0.03 0.02 0.05 0.07 0.07 0.08 0.08 0.05 0.07 0.07 0.09 0.09 0.07 0.05 0.05 0.07 0.10
0.15 0.14 0.13 0.10 0.07 0.06 0.04 0.04 0.04 0.04 0.03 0.02 0.02 0.01 0.00 0.00 0.00 0.00 0.00 0.00 0.00 0.00 0.01 0.01 0.01 0.01 0.02 0.02 0.03 0.05 0.07 0.09 0.10 0.08 0.06 0.08 0.09 0.09 0.09 0.08 0.08 0.08 0.11
0.07 0.06 0.06 0.07 0.08 0.07 0.06 0.06 0.06 0.05 0.04 0.03 0.03 0.02 0.01 0.00 0.00 0.00 0.00 0.00 0.00 0.00 0.01 0.01 0.01 0.01 0.02 0.03 0.04 0.05 0.06 0.06 0.08 0.11 0.09 0.10 0.11 0.13 0.14 0.12 0.11 0.11 0.13

GEFSSE_prec_meanprec_060.txt.gz
QPF
0.00 0.00 0.00 0.00 0.00 0.00 0.00 0.00 0.00 0.00 0.00 0.00 0.00 0.00 0.00 0.00 0.00 0.00 0.00 0.00 0.00 0.00 0.00 0.00 0.00 0.00 0.00 0.00 0.00 0.00 0.00 0.00 0.00 0.00 0.00 0.00 0.01 0.01 0.01 0.01 0.00 0.00 0.00
0.00 0.00 0.00 0.00 0.00 0.00 0.00 0.00 0.00 0.00 0.00 0.00 0.00 0.00 0.00 0.00 0.00 0.00 0.00 0.00 0.00 0.00 0.00 0.00 0.00 0.00 0.00 0.00 0.00 0.00 0.00 0.00 0.00 0.00 0.00 0.00 0.00 0.01 0.01 0.00 0.00 0.00 0.00
0.00 0.00 0.00 0.00 0.00 0.00 0.00 0.00 0.00 0.00 0.00 0.00 0.00 0.00 0.00 0.00 0.00 0.00 0.00 0.00 0.00 0.00 0.00 0.00 0.00 0.00 0.00 0.00 0.00 0.00 0.00 0.00 0.00 0.00 0.01 0.01 0.00 0.00 0.00 0.00 0.00 0.00 0.00
0.00 0.00 0.00 0.00 0.00 0.00 0.00 0.00 0.00 0.00 0.00 0.00 0.00 0.00 0.00 0.00 0.00 0.00 0.00 0.00 0.00 0.00 0.00 0.00 0.00 0.00 0.00 0.00 0.00 0.00 0.00 0.00 0.00 0.00 0.01 0.02 0.01 0.01 0.01 0.00 0.00 0.00 0.00
0.00 0.00 0.00 0.00 0.00 0.00 0.00 0.00 0.00 0.00 0.00 0.00 0.00 0.00 0.00 0.00 0.00 0.00 0.00 0.00 0.00 0.00 0.00 0.00 0.00 0.00 0.00 0.00 0.00 0.00 0.00 0.00 0.00 0.00 0.01 0.02 0.01 0.01 0.01 0.01 0.00 0.00 0.00
0.00 0.00 0.00 0.00 0.00 0.00 0.00 0.00 0.00 0.00 0.00 0.00 0.00 0.00 0.00 0.00 0.00 0.00 0.00 0.00 0.00 0.00 0.00 0.00 0.00 0.00 0.00 0.00 0.00 0.00 0.00 0.00 0.00 0.00 0.00 0.01 0.01 0.03 0.02 0.01 0.00 0.00 0.00
0.00 0.00 0.00 0.00 0.00 0.00 0.00 0.00 0.00 0.00 0.00 0.00 0.00 0.00 0.00 0.00 0.00 0.00 0.00 0.00 0.00 0.00 0.00 0.00 0.00 0.00 0.00 0.00 0.00 0.00 0.00 0.00 0.00 0.00 0.00 0.01 0.01 0.02 0.02 0.01 0.00 0.00 0.00
0.00 0.00 0.00 0.00 0.00 0.00 0.00 0.00 0.00 0.00 0.00 0.00 0.00 0.00 0.00 0.00 0.00 0.00 0.00 0.00 0.00 0.00 0.00 0.00 0.00 0.00 0.00 0.00 0.00 0.00 0.00 0.00 0.00 0.00 0.00 0.01 0.01 0.02 0.03 0.02 0.01 0.00 0.00
0.00 0.00 0.00 0.00 0.00 0.00 0.00 0.00 0.00 0.00 0.00 0.00 0.00 0.00 0.00 0.00 0.00 0.00 0.00 0.00 0.00 0.00 0.00 0.00 0.00 0.00 0.00 0.00 0.00 0.00 0.00 0.00 0.00 0.00 0.00 0.00 0.01 0.03 0.05 0.03 0.02 0.01 0.00
0.00 0.00 0.00 0.00 0.00 0.00 0.00 0.00 0.00 0.00 0.00 0.00 0.00 0.00 0.00 0.00 0.00 0.00 0.01 0.01 0.01 0.00 0.00 0.00 0.00 0.00 0.00 0.00 0.00 0.00 0.00 0.00 0.00 0.00 0.00 0.00 0.02 0.05 0.06 0.04 0.03 0.02 0.01
0.00 0.00 0.00 0.00 0.00 0.00 0.00 0.00 0.00 0.00 0.00 0.00 0.00 0.00 0.00 0.00 0.00 0.00 0.01 0.03 0.04 0.04 0.03 0.02 0.01 0.00 0.00 0.00 0.00 0.01 0.00 0.00 0.00 0.00 0.00 0.00 0.01 0.06 0.07 0.05 0.03 0.03 0.01
0.00 0.00 0.00 0.00 0.00 0.00 0.00 0.00 0.00 0.00 0.00 0.00 0.00 0.00 0.00 0.00 0.01 0.00 0.01 0.06 0.09 0.10 0.09 0.08 0.05 0.03 0.02 0.03 0.02 0.03 0.01 0.01 0.01 0.01 0.01 0.01 0.03 0.09 0.09 0.05 0.03 0.03 0.02
0.00 0.00 0.00 0.00 0.00 0.00 0.00 0.00 0.00 0.00 0.00 0.00 0.00 0.01 0.01 0.02 0.01 0.02 0.03 0.06 0.09 0.12 0.09 0.12 0.11 0.08 0.07 0.06 0.04 0.05 0.05 0.04 0.04 0.05 0.04 0.04 0.08 0.11 0.11 0.07 0.05 0.03 0.02
0.00 0.00 0.00 0.00 0.00 0.00 0.00 0.00 0.00 0.00 0.00 0.01 0.01 0.02 0.03 0.03 0.03 0.04 0.04 0.04 0.06 0.07 0.09 0.10 0.10 0.12 0.12 0.12 0.13 0.16 0.13 0.11 0.10 0.12 0.11 0.10 0.10 0.11 0.14 0.12 0.08 0.06 0.04
0.00 0.00 0.00 0.00 0.00 0.00 0.00 0.00 0.01 0.01 0.01 0.02 0.02 0.03 0.05 0.05 0.07 0.06 0.05 0.06 0.08 0.10 0.12 0.12 0.13 0.15 0.17 0.18 0.18 0.19 0.20 0.21 0.19 0.20 0.20 0.16 0.14 0.13 0.18 0.17 0.14 0.11 0.08
0.01 0.01 0.00 0.01 0.01 0.01 0.01 0.01 0.01 0.02 0.03 0.04 0.05 0.06 0.08 0.09 0.09 0.08 0.07 0.08 0.08 0.09 0.10 0.10 0.10 0.12 0.13 0.14 0.15 0.16 0.20 0.22 0.22 0.18 0.17 0.17 0.18 0.15 0.16 0.18 0.17 0.15 0.12
0.06 0.04 0.04 0.04 0.03 0.03 0.03 0.04 0.04 0.05 0.07 0.09 0.12 0.11 0.14 0.12 0.09 0.07 0.07 0.07 0.07 0.07 0.07 0.06 0.07 0.07 0.06 0.06 0.07 0.08 0.10 0.11 0.12 0.13 0.18 0.22 0.20 0.17 0.13 0.14 0.15 0.14 0.14
0.25 0.22 0.20 0.16 0.14 0.10 0.10 0.09 0.09 0.09 0.10 0.12 0.21 0.20 0.16 0.10 0.07 0.06 0.04 0.04 0.04 0.03 0.03 0.04 0.05 0.05 0.04 0.05 0.05 0.03 0.03 0.04 0.04 0.05 0.08 0.12 0.14 0.12 0.11 0.13 0.14 0.14 0.15
0.62 0.59 0.52 0.39 0.36 0.26 0.19 0.17 0.14 0.13 0.11 0.10 0.14 0.22 0.24 0.11 0.04 0.03 0.02 0.01 0.01 0.01 0.02 0.02 0.03 0.03 0.03 0.04 0.03 0.02 0.01 0.02 0.02 0.03 0.04 0.05 0.07 0.09 0.09 0.11 0.13 0.13 0.15
0.85 0.92 0.93 0.77 0.67 0.53 0.42 0.33 0.26 0.20 0.17 0.18 0.18 0.17 0.12 0.06 0.02 0.01 0.01 0.01 0.01 0.00 0.01 0.01 0.01 0.02 0.02 0.02 0.02 0.01 0.01 0.01 0.01 0.01 0.01 0.02 0.03 0.06 0.08 0.10 0.12 0.13 0.15
1.03 0.99 0.99 1.12 1.12 0.92 0.68 0.48 0.36 0.29 0.24 0.18 0.12 0.07 0.06 0.04 0.04 0.03 0.01 0.01 0.01 0.00 0.00 0.00 0.01 0.01 0.01 0.01 0.01 0.00 0.00 0.00 0.00 0.00 0.01 0.01 0.03 0.05 0.07 0.09 0.10 0.12 0.12
1.01 1.13 1.08 0.98 0.98 0.76 0.48 0.39 0.37 0.32 0.25 0.14 0.08 0.06 0.05 0.05 0.05 0.04 0.02 0.01 0.01 0.01 0.00 0.00 0.00 0.00 0.00 0.00 0.00 0.00 0.00 0.00 0.00 0.00 0.01 0.02 0.03 0.05 0.07 0.09 0.10 0.10 0.11
0.63 0.72 0.74 0.72 0.56 0.38 0.28 0.26 0.26 0.25 0.20 0.11 0.08 0.08 0.10 0.07 0.05 0.04 0.03 0.02 0.01 0.01 0.00 0.00 0.00 0.00 0.00 0.00 0.00 0.01 0.01 0.00 0.00 0.00 0.01 0.02 0.03 0.04 0.05 0.08 0.08 0.08 0.08
0.44 0.44 0.35 0.31 0.25 0.19 0.17 0.18 0.16 0.14 0.14 0.11 0.09 0.09 0.08 0.07 0.06 0.05 0.04 0.03 0.02 0.01 0.01 0.01 0.00 0.00 0.00 0.00 0.00 0.00 0.01 0.01 0.01 0.00 0.00 0.01 0.02 0.03 0.04 0.05 0.07 0.08 0.10
0.20 0.20 0.19 0.20 0.17 0.15 0.16 0.15 0.13 0.11 0.11 0.10 0.09 0.08 0.07 0.06 0.08 0.08 0.06 0.06 0.05 0.03 0.02 0.01 0.01 0.00 0.00 0.00 0.00 0.00 0.00 0.01 0.01 0.01 0.00 0.00 0.01 0.01 0.03 0.05 0.07 0.09 0.13
0.11 0.12 0.13 0.15 0.16 0.18 0.22 0.20 0.16 0.13 0.11 0.10 0.09 0.08 0.07 0.06 0.06 0.07 0.07 0.08 0.07 0.05 0.03 0.02 0.01 0.01 0.00 0.00 0.00 0.00 0.00 0.00 0.01 0.01 0.01 0.01 0.01 0.01 0.02 0.04 0.06 0.08 0.12

GEFSSE_prec_meanprec_066.txt.gz
QPF
0.00 0.00 0.00 0.00 0.00 0.00 0.00 0.00 0.00 0.00 0.00 0.00 0.00 0.00 0.00 0.00 0.00 0.00 0.00 0.00 0.00 0.00 0.00 0.00 0.00 0.00 0.00 0.00 0.00 0.00 0.00 0.00 0.00 0.00 0.00 0.01 0.01 0.02 0.03 0.01 0.00 0.00 0.01
0.00 0.00 0.00 0.00 0.00 0.00 0.00 0.00 0.00 0.00 0.00 0.00 0.00 0.00 0.00 0.00 0.00 0.00 0.00 0.00 0.00 0.00 0.00 0.00 0.00 0.00 0.00 0.00 0.00 0.00 0.00 0.00 0.00 0.00 0.00 0.01 0.01 0.03 0.04 0.01 0.00 0.00 0.01
0.00 0.00 0.00 0.00 0.00 0.00 0.00 0.00 0.00 0.00 0.00 0.00 0.00 0.00 0.00 0.00 0.00 0.00 0.00 0.00 0.00 0.00 0.00 0.00 0.00 0.00 0.00 0.00 0.00 0.00 0.00 0.00 0.00 0.00 0.00 0.00 0.01 0.03 0.05 0.02 0.00 0.00 0.00
0.00 0.00 0.00 0.00 0.00 0.00 0.00 0.00 0.00 0.00 0.00 0.00 0.00 0.00 0.00 0.00 0.00 0.00 0.00 0.00 0.00 0.00 0.00 0.00 0.00 0.00 0.00 0.00 0.00 0.00 0.00 0.00 0.00 0.01 0.00 0.00 0.00 0.03 0.04 0.02 0.01 0.00 0.00
0.00 0.00 0.00 0.00 0.00 0.00 0.00 0.00 0.00 0.00 0.00 0.00 0.00 0.00 0.00 0.00 0.00 0.00 0.00 0.00 0.00 0.00 0.00 0.00 0.00 0.00 0.00 0.00 0.00 0.00 0.00 0.00 0.00 0.00 0.00 0.00 0.00 0.01 0.03 0.03 0.01 0.01 0.01
0.00 0.00 0.00 0.00 0.00 0.00 0.00 0.00 0.00 0.00 0.00 0.00 0.00 0.00 0.00 0.00 0.00 0.00 0.00 0.00 0.00 0.00 0.00 0.00 0.00 0.00 0.00 0.00 0.00 0.00 0.00 0.00 0.00 0.00 0.00 0.00 0.00 0.01 0.04 0.05 0.04 0.02 0.01
0.00 0.00 0.00 0.00 0.00 0.00 0.00 0.00 0.00 0.00 0.00 0.00 0.00 0.00 0.00 0.00 0.00 0.00 0.00 0.00 0.00 0.00 0.00 0.00 0.00 0.00 0.00 0.00 0.00 0.00 0.00 0.00 0.00 0.00 0.00 0.00 0.00 0.01 0.04 0.07 0.06 0.04 0.03
0.00 0.00 0.00 0.00 0.00 0.00 0.00 0.00 0.00 0.00 0.00 0.00 0.00 0.00 0.00 0.00 0.00 0.00 0.00 0.00 0.00 0.00 0.00 0.00 0.00 0.00 0.00 0.00 0.00 0.00 0.00 0.00 0.00 0.00 0.00 0.00 0.00 0.01 0.04 0.07 0.08 0.07 0.05
0.00 0.00 0.00 0.00 0.00 0.00 0.00 0.00 0.00 0.00 0.00 0.00 0.00 0.00 0.00 0.00 0.00 0.00 0.00 0.00 0.00 0.00 0.00 0.00 0.00 0.00 0.00 0.00 0.00 0.00 0.00 0.00 0.00 0.00 0.00 0.00 0.00 0.01 0.05 0.09 0.07 0.08 0.07
0.00 0.00 0.00 0.00 0.00 0.00 0.00 0.00 0.00 0.00 0.00 0.00 0.00 0.00 0.00 0.00 0.00 0.00 0.00 0.00 0.00 0.00 0.00 0.00 0.00 0.00 0.00 0.00 0.00 0.00 0.00 0.00 0.00 0.00 0.00 0.00 0.00 0.02 0.06 0.09 0.09 0.08 0.07
0.00 0.00 0.00 0.00 0.00 0.00 0.00 0.00 0.00 0.00 0.00 0.00 0.00 0.00 0.00 0.00 0.00 0.00 0.01 0.01 0.02 0.03 0.04 0.04 0.03 0.02 0.02 0.02 0.01 0.01 0.01 0.00 0.00 0.00 0.00 0.00 0.01 0.04 0.08 0.11 0.11 0.09 0.08
0.00 0.00 0.00 0.00 0.00 0.00 0.00 0.00 0.00 0.00 0.00 0.00 0.00 0.01 0.01 0.01 0.00 0.01 0.02 0.06 0.08 0.12 0.15 0.14 0.14 0.10 0.06 0.04 0.04 0.05 0.03 0.01 0.01 0.01 0.00 0.01 0.04 0.07 0.09 0.11 0.10 0.10 0.10
0.01 0.01 0.00 0.00 0.01 0.01 0.01 0.00 0.01 0.01 0.01 0.01 0.01 0.01 0.01 0.01 0.01 0.01 0.03 0.05 0.10 0.14 0.14 0.18 0.19 0.13 0.12 0.10 0.06 0.04 0.03 0.04 0.03 0.02 0.01 0.03 0.07 0.09 0.12 0.11 0.10 0.10 0.11
0.02 0.02 0.01 0.01 0.01 0.01 0.01 0.01 0.02 0.02 0.02 0.02 0.02 0.02 0.03 0.03 0.04 0.06 0.07 0.08 0.08 0.09 0.12 0.13 0.13 0.13 0.12 0.12 0.11 0.09 0.08 0.07 0.06 0.05 0.04 0.05 0.09 0.13 0.15 0.14 0.13 0.13 0.14
0.04 0.06 0.06 0.03 0.02 0.03 0.03 0.04 0.05 0.06 0.07 0.06 0.06 0.07 0.09 0.11 0.12 0.15 0.14 0.13 0.13 0.13 0.14 0.14 0.13 0.14 0.14 0.13 0.12 0.11 0.11 0.11 0.09 0.07 0.05 0.04 0.10 0.14 0.17 0.19 0.18 0.18 0.18
0.09 0.13 0.16 0.16 0.16 0.17 0.18 0.18 0.18 0.19 0.20 0.20 0.20 0.19 0.19 0.19 0.20 0.21 0.19 0.16 0.14 0.12 0.10 0.09 0.09 0.11 0.12 0.12 0.09 0.10 0.11 0.07 0.05 0.04 0.03 0.02 0.04 0.08 0.11 0.15 0.18 0.19 0.20
0.13 0.20 0.29 0.36 0.42 0.41 0.39 0.38 0.37 0.41 0.43 0.37 0.32 0.32 0.29 0.26 0.28 0.27 0.24 0.18 0.12 0.10 0.10 0.09 0.09 0.09 0.08 0.08 0.08 0.09 0.08 0.06 0.05 0.04 0.03 0.02 0.02 0.04 0.06 0.08 0.13 0.17 0.19
0.21 0.30 0.43 0.51 0.60 0.65 0.62 0.58 0.57 0.56 0.51 0.42 0.36 0.39 0.39 0.34 0.35 0.28 0.18 0.13 0.11 0.08 0.07 0.07 0.05 0.04 0.04 0.04 0.05 0.06 0.04 0.05 0.03 0.02 0.02 0.02 0.02 0.02 0.03 0.07 0.10 0.14 0.19
0.31 0.40 0.52 0.67 0.71 0.75 0.75 0.74 0.73 0.64 0.55 0.44 0.37 0.33 0.30 0.28 0.25 0.22 0.16 0.11 0.08 0.06 0.04 0.04 0.03 0.03 0.02 0.02 0.02 0.02 0.02 0.04 0.03 0.01 0.01 0.01 0.01 0.02 0.03 0.04 0.06 0.08 0.14
0.36 0.44 0.51 0.66 0.77 0.77 0.78 0.79 0.76 0.69 0.55 0.44 0.39 0.36 0.28 0.23 0.18 0.16 0.15 0.11 0.07 0.04 0.03 0.02 0.01 0.01 0.01 0.01 0.01 0.00 0.01 0.02 0.02 0.01 0.01 0.01 0.01 0.01 0.02 0.02 0.03 0.04 0.07
0.29 0.48 0.58 0.71 0.77 0.75 0.77 0.78 0.67 0.59 0.54 0.48 0.41 0.36 0.30 0.26 0.21 0.15 0.11 0.07 0.05 0.04 0.03 0.02 0.01 0.01 0.01 0.01 0.00 0.00 0.00 0.00 0.00 0.00 0.00 0.00 0.00 0.01 0.02 0.02 0.02 0.02 0.02
0.16 0.26 0.31 0.36 0.47 0.61 0.62 0.52 0.44 0.44 0.42 0.44 0.42 0.32 0.26 0.20 0.16 0.12 0.10 0.06 0.03 0.03 0.02 0.02 0.01 0.01 0.01 0.01 0.00 0.00 0.00 0.00 0.00 0.00 0.00 0.00 0.00 0.01 0.01 0.01 0.02 0.01 0.01
0.05 0.06 0.08 0.08 0.12 0.17 0.17 0.17 0.16 0.19 0.20 0.22 0.24 0.24 0.22 0.17 0.12 0.08 0.06 0.05 0.04 0.03 0.02 0.01 0.01 0.01 0.01 0.01 0.00 0.00 0.00 0.00 0.00 0.00 0.00 0.00 0.00 0.00 0.01 0.01 0.01 0.01 0.00
0.04 0.04 0.04 0.04 0.05 0.06 0.06 0.07 0.08 0.09 0.11 0.11 0.11 0.12 0.14 0.15 0.12 0.09 0.06 0.04 0.03 0.03 0.02 0.02 0.01 0.01 0.01 0.00 0.00 0.00 0.00 0.00 0.00 0.00 0.00 0.00 0.00 0.00 0.00 0.00 0.00 0.00 0.00
0.03 0.04 0.04 0.05 0.05 0.06 0.07 0.07 0.08 0.10 0.11 0.12 0.12 0.14 0.15 0.15 0.14 0.12 0.10 0.08 0.06 0.06 0.05 0.04 0.03 0.01 0.01 0.00 0.00 0.00 0.00 0.00 0.00 0.00 0.00 0.00 0.00 0.00 0.00 0.00 0.00 0.00 0.00
0.03 0.04 0.05 0.06 0.06 0.07 0.08 0.08 0.10 0.10 0.10 0.11 0.11 0.12 0.13 0.13 0.13 0.11 0.11 0.10 0.10 0.10 0.08 0.06 0.04 0.02 0.01 0.01 0.00 0.00 0.00 0.00 0.00 0.00 0.00 0.00 0.00 0.00 0.00 0.00 0.00 0.00 0.00

GEFSSE_prec_meanprec_072.txt.gz
QPF
0.00 0.00 0.00 0.00 0.00 0.00 0.00 0.00 0.00 0.00 0.00 0.00 0.00 0.00 0.00 0.00 0.00 0.00 0.00 0.00 0.00 0.00 0.00 0.00 0.00 0.00 0.00 0.00 0.00 0.00 0.00 0.00 0.00 0.01 0.00 0.00 0.01 0.01 0.02 0.01 0.02 0.02 0.01
0.00 0.00 0.00 0.00 0.00 0.00 0.00 0.00 0.00 0.00 0.00 0.00 0.00 0.00 0.00 0.00 0.00 0.00 0.00 0.00 0.00 0.00 0.00 0.00 0.00 0.00 0.00 0.00 0.00 0.00 0.00 0.00 0.00 0.01 0.01 0.01 0.01 0.01 0.02 0.01 0.02 0.02 0.01
0.00 0.00 0.00 0.00 0.00 0.00 0.00 0.00 0.00 0.00 0.00 0.00 0.00 0.00 0.00 0.00 0.00 0.00 0.00 0.00 0.00 0.00 0.00 0.00 0.00 0.00 0.00 0.00 0.00 0.00 0.00 0.00 0.00 0.01 0.01 0.01 0.01 0.01 0.01 0.01 0.01 0.01 0.01
0.00 0.00 0.00 0.00 0.00 0.00 0.00 0.00 0.00 0.00 0.00 0.00 0.00 0.00 0.00 0.00 0.00 0.00 0.00 0.00 0.00 0.00 0.00 0.00 0.00 0.00 0.00 0.00 0.00 0.00 0.00 0.00 0.00 0.00 0.02 0.02 0.01 0.01 0.01 0.01 0.01 0.01 0.01
0.00 0.00 0.00 0.00 0.00 0.00 0.00 0.00 0.00 0.00 0.00 0.00 0.00 0.00 0.00 0.00 0.00 0.00 0.00 0.00 0.00 0.00 0.00 0.00 0.00 0.00 0.00 0.00 0.00 0.00 0.00 0.00 0.00 0.01 0.01 0.02 0.03 0.01 0.01 0.02 0.02 0.01 0.01
0.00 0.00 0.00 0.00 0.00 0.00 0.00 0.00 0.00 0.00 0.00 0.00 0.00 0.00 0.00 0.00 0.00 0.00 0.00 0.00 0.00 0.00 0.00 0.00 0.00 0.00 0.00 0.00 0.00 0.00 0.00 0.00 0.00 0.00 0.00 0.01 0.03 0.01 0.01 0.02 0.02 0.02 0.02
0.00 0.00 0.00 0.00 0.00 0.00 0.00 0.00 0.00 0.00 0.00 0.00 0.00 0.00 0.00 0.00 0.00 0.00 0.00 0.00 0.00 0.00 0.00 0.00 0.00 0.00 0.00 0.00 0.00 0.00 0.00 0.00 0.00 0.01 0.00 0.01 0.02 0.01 0.02 0.04 0.05 0.04 0.02
0.00 0.00 0.00 0.00 0.00 0.00 0.00 0.00 0.00 0.00 0.00 0.00 0.00 0.00 0.00 0.00 0.00 0.00 0.00 0.00 0.00 0.00 0.00 0.00 0.00 0.00 0.00 0.00 0.00 0.00 0.00 0.00 0.00 0.00 0.00 0.01 0.02 0.01 0.03 0.06 0.06 0.06 0.05
0.00 0.00 0.00 0.00 0.00 0.00 0.00 0.00 0.00 0.00 0.00 0.00 0.00 0.00 0.00 0.00 0.00 0.00 0.00 0.00 0.00 0.00 0.00 0.00 0.00 0.00 0.00 0.00 0.00 0.00 0.00 0.00 0.00 0.01 0.00 0.01 0.01 0.01 0.03 0.07 0.07 0.06 0.06
0.00 0.00 0.00 0.01 0.01 0.01 0.01 0.01 0.00 0.00 0.00 0.00 0.00 0.00 0.00 0.00 0.00 0.00 0.00 0.00 0.00 0.00 0.00 0.00 0.00 0.00 0.00 0.00 0.01 0.00 0.00 0.00 0.00 0.00 0.01 0.00 0.01 0.01 0.03 0.07 0.08 0.07 0.06
0.00 0.00 0.00 0.01 0.01 0.01 0.01 0.01 0.01 0.01 0.01 0.01 0.01 0.01 0.01 0.01 0.01 0.01 0.01 0.01 0.01 0.02 0.02 0.02 0.03 0.03 0.03 0.02 0.01 0.02 0.01 0.01 0.00 0.01 0.01 0.00 0.00 0.01 0.04 0.08 0.08 0.07 0.06
0.00 0.00 0.01 0.01 0.01 0.01 0.01 0.02 0.02 0.02 0.02 0.02 0.03 0.02 0.03 0.03 0.03 0.02 0.02 0.02 0.04 0.05 0.05 0.05 0.07 0.07 0.06 0.05 0.06 0.06 0.03 0.03 0.03 0.02 0.01 0.01 0.01 0.01 0.03 0.05 0.06 0.07 0.07
0.00 0.00 0.01 0.01 0.02 0.02 0.02 0.02 0.02 0.03 0.04 0.04 0.04 0.04 0.04 0.04 0.04 0.04 0.04 0.05 0.06 0.07 0.09 0.11 0.13 0.10 0.10 0.12 0.14 0.11 0.06 0.05 0.04 0.03 0.03 0.02 0.02 0.02 0.03 0.04 0.05 0.07 0.08
0.00 0.01 0.01 0.01 0.02 0.02 0.02 0.02 0.02 0.02 0.03 0.04 0.04 0.05 0.06 0.06 0.07 0.06 0.06 0.06 0.07 0.09 0.12 0.14 0.15 0.14 0.16 0.17 0.17 0.13 0.09 0.06 0.05 0.05 0.07 0.04 0.04 0.04 0.04 0.05 0.05 0.06 0.08
0.01 0.02 0.02 0.02 0.03 0.03 0.03 0.02 0.02 0.02 0.04 0.05 0.06 0.07 0.08 0.08 0.07 0.08 0.09 0.11 0.11 0.12 0.13 0.15 0.16 0.17 0.17 0.17 0.16 0.12 0.09 0.07 0.06 0.07 0.07 0.06 0.05 0.05 0.04 0.05 0.06 0.07 0.08
0.03 0.06 0.06 0.07 0.07 0.06 0.05 0.05 0.07 0.07 0.09 0.11 0.10 0.10 0.12 0.12 0.14 0.15 0.15 0.16 0.15 0.14 0.14 0.16 0.17 0.20 0.18 0.19 0.15 0.13 0.12 0.10 0.08 0.08 0.07 0.08 0.06 0.05 0.05 0.06 0.08 0.07 0.09
0.05 0.08 0.09 0.09 0.08 0.08 0.08 0.09 0.11 0.11 0.14 0.18 0.17 0.17 0.16 0.15 0.17 0.17 0.14 0.15 0.16 0.14 0.14 0.15 0.18 0.21 0.17 0.16 0.16 0.18 0.17 0.13 0.09 0.09 0.09 0.09 0.06 0.04 0.04 0.05 0.06 0.08 0.10
0.04 0.06 0.09 0.10 0.09 0.08 0.08 0.09 0.11 0.13 0.17 0.18 0.19 0.22 0.23 0.23 0.22 0.22 0.19 0.19 0.18 0.17 0.14 0.15 0.16 0.16 0.16 0.17 0.17 0.16 0.15 0.12 0.06 0.07 0.06 0.05 0.05 0.04 0.04 0.04 0.05 0.06 0.08
0.05 0.07 0.09 0.10 0.10 0.11 0.13 0.17 0.22 0.26 0.27 0.30 0.31 0.29 0.26 0.23 0.21 0.21 0.21 0.21 0.19 0.17 0.13 0.11 0.12 0.12 0.13 0.13 0.12 0.12 0.10 0.06 0.06 0.04 0.03 0.02 0.03 0.03 0.04 0.03 0.02 0.03 0.05
0.06 0.07 0.06 0.07 0.09 0.11 0.14 0.17 0.23 0.28 0.31 0.34 0.35 0.35 0.32 0.27 0.24 0.21 0.20 0.21 0.20 0.17 0.13 0.10 0.10 0.09 0.09 0.09 0.06 0.06 0.05 0.04 0.03 0.03 0.01 0.01 0.01 0.02 0.02 0.02 0.02 0.02 0.02
0.05 0.05 0.04 0.06 0.08 0.12 0.17 0.20 0.24 0.30 0.30 0.28 0.28 0.29 0.31 0.31 0.29 0.24 0.19 0.20 0.21 0.19 0.16 0.14 0.10 0.07 0.06 0.06 0.05 0.04 0.04 0.02 0.02 0.02 0.01 0.01 0.00 0.01 0.01 0.02 0.03 0.03 0.03
0.04 0.03 0.03 0.03 0.04 0.07 0.10 0.14 0.15 0.17 0.17 0.16 0.18 0.21 0.21 0.22 0.22 0.20 0.16 0.16 0.15 0.14 0.12 0.10 0.08 0.06 0.05 0.04 0.03 0.03 0.02 0.01 0.01 0.01 0.01 0.01 0.00 0.01 0.01 0.01 0.02 0.03 0.02
0.02 0.02 0.02 0.02 0.03 0.03 0.04 0.06 0.08 0.09 0.10 0.12 0.13 0.15 0.16 0.16 0.16 0.16 0.14 0.13 0.12 0.10 0.08 0.07 0.07 0.06 0.05 0.04 0.03 0.02 0.01 0.01 0.00 0.00 0.00 0.00 0.00 0.01 0.01 0.02 0.02 0.02 0.01
0.01 0.01 0.01 0.01 0.01 0.01 0.01 0.02 0.03 0.04 0.05 0.07 0.08 0.10 0.11 0.14 0.14 0.13 0.14 0.13 0.12 0.10 0.09 0.08 0.07 0.06 0.05 0.04 0.04 0.03 0.01 0.01 0.00 0.00 0.00 0.00 0.00 0.00 0.01 0.01 0.01 0.01 0.01
0.01 0.01 0.00 0.01 0.01 0.01 0.00 0.01 0.02 0.02 0.03 0.04 0.04 0.05 0.07 0.09 0.12 0.14 0.14 0.13 0.13 0.12 0.10 0.09 0.08 0.06 0.05 0.05 0.04 0.03 0.02 0.02 0.01 0.00 0.00 0.00 0.00 0.00 0.01 0.01 0.01 0.01 0.01
0.01 0.01 0.00 0.00 0.01 0.01 0.00 0.00 0.01 0.01 0.01 0.02 0.02 0.03 0.05 0.05 0.06 0.08 0.09 0.08 0.08 0.09 0.09 0.08 0.07 0.06 0.06 0.06 0.05 0.04 0.03 0.02 0.01 0.01 0.00 0.00 0.00 0.00 0.00 0.00 0.00 0.01 0.01

GEFSSE_prec_meanprec_078.txt.gz
QPF
0.00 0.00 0.00 0.00 0.00 0.00 0.00 0.00 0.00 0.00 0.00 0.00 0.00 0.00 0.00 0.00 0.00 0.00 0.00 0.00 0.00 0.00 0.00 0.00 0.00 0.00 0.00 0.00 0.00 0.00 0.00 0.00 0.00 0.00 0.00 0.00 0.00 0.00 0.01 0.02 0.07 0.04 0.02
0.00 0.00 0.00 0.00 0.00 0.00 0.00 0.00 0.00 0.00 0.00 0.00 0.00 0.00 0.00 0.00 0.00 0.00 0.00 0.00 0.00 0.00 0.00 0.00 0.00 0.01 0.00 0.00 0.00 0.00 0.00 0.00 0.00 0.00 0.00 0.00 0.00 0.00 0.01 0.03 0.10 0.04 0.01
0.00 0.00 0.00 0.00 0.00 0.00 0.00 0.00 0.00 0.00 0.00 0.00 0.00 0.00 0.00 0.00 0.00 0.00 0.00 0.00 0.00 0.00 0.01 0.01 0.00 0.00 0.00 0.00 0.00 0.00 0.00 0.00 0.00 0.00 0.05 0.03 0.00 0.00 0.01 0.03 0.04 0.01 0.01
0.00 0.00 0.00 0.00 0.00 0.00 0.00 0.00 0.00 0.00 0.00 0.00 0.00 0.00 0.00 0.00 0.00 0.00 0.00 0.00 0.00 0.00 0.00 0.01 0.00 0.00 0.00 0.00 0.00 0.00 0.00 0.00 0.00 0.02 0.15 0.07 0.00 0.00 0.00 0.01 0.01 0.00 0.01
0.00 0.00 0.00 0.00 0.00 0.00 0.00 0.00 0.00 0.00 0.00 0.00 0.00 0.00 0.00 0.00 0.00 0.00 0.00 0.00 0.00 0.00 0.00 0.00 0.00 0.00 0.00 0.00 0.00 0.00 0.00 0.00 0.00 0.03 0.09 0.07 0.03 0.00 0.00 0.00 0.01 0.01 0.01
0.00 0.00 0.00 0.00 0.00 0.00 0.00 0.00 0.00 0.00 0.00 0.00 0.00 0.00 0.01 0.00 0.00 0.00 0.00 0.00 0.00 0.00 0.00 0.00 0.00 0.00 0.00 0.00 0.00 0.00 0.00 0.00 0.01 0.03 0.03 0.04 0.05 0.01 0.00 0.00 0.00 0.00 0.00
0.00 0.00 0.00 0.00 0.00 0.00 0.00 0.00 0.00 0.00 0.00 0.00 0.00 0.00 0.00 0.00 0.00 0.00 0.00 0.00 0.00 0.00 0.00 0.00 0.00 0.00 0.00 0.00 0.00 0.00 0.00 0.00 0.01 0.03 0.02 0.03 0.03 0.00 0.00 0.00 0.00 0.01 0.01
0.00 0.00 0.00 0.00 0.00 0.00 0.00 0.00 0.00 0.00 0.00 0.00 0.00 0.00 0.00 0.00 0.00 0.00 0.00 0.01 0.00 0.00 0.00 0.00 0.00 0.00 0.00 0.00 0.00 0.00 0.00 0.00 0.00 0.01 0.01 0.02 0.01 0.00 0.00 0.00 0.00 0.01 0.01
0.00 0.00 0.00 0.00 0.00 0.00 0.00 0.00 0.00 0.00 0.00 0.00 0.00 0.00 0.00 0.00 0.00 0.00 0.00 0.00 0.00 0.00 0.00 0.00 0.00 0.00 0.00 0.00 0.00 0.00 0.00 0.00 0.00 0.00 0.01 0.02 0.01 0.00 0.00 0.01 0.01 0.01 0.01
0.00 0.00 0.00 0.00 0.00 0.00 0.00 0.00 0.00 0.00 0.00 0.00 0.00 0.00 0.00 0.00 0.00 0.00 0.00 0.00 0.00 0.00 0.00 0.00 0.00 0.00 0.00 0.00 0.00 0.00 0.00 0.00 0.00 0.00 0.01 0.01 0.00 0.00 0.01 0.01 0.02 0.02 0.02
0.00 0.00 0.00 0.00 0.00 0.00 0.00 0.00 0.00 0.00 0.00 0.00 0.00 0.00 0.00 0.00 0.00 0.01 0.01 0.01 0.01 0.00 0.00 0.01 0.01 0.01 0.01 0.01 0.00 0.00 0.00 0.00 0.00 0.00 0.00 0.01 0.01 0.00 0.00 0.01 0.02 0.03 0.02
0.00 0.00 0.00 0.00 0.00 0.00 0.00 0.00 0.00 0.00 0.01 0.01 0.01 0.02 0.01 0.01 0.01 0.01 0.01 0.02 0.02 0.03 0.03 0.02 0.03 0.03 0.02 0.02 0.06 0.06 0.01 0.01 0.01 0.00 0.01 0.02 0.01 0.01 0.00 0.01 0.01 0.03 0.02
0.00 0.00 0.00 0.00 0.00 0.01 0.01 0.01 0.01 0.01 0.03 0.03 0.04 0.06 0.06 0.06 0.03 0.02 0.02 0.05 0.05 0.05 0.05 0.06 0.06 0.04 0.05 0.07 0.13 0.13 0.03 0.03 0.03 0.01 0.02 0.03 0.03 0.02 0.01 0.01 0.01 0.02 0.03
0.00 0.00 0.00 0.00 0.01 0.01 0.02 0.03 0.03 0.02 0.03 0.03 0.06 0.07 0.09 0.11 0.07 0.05 0.06 0.07 0.10 0.12 0.12 0.11 0.15 0.13 0.13 0.15 0.15 0.13 0.09 0.07 0.07 0.05 0.09 0.09 0.04 0.03 0.02 0.01 0.01 0.02 0.03
0.00 0.01 0.01 0.02 0.03 0.04 0.04 0.04 0.03 0.02 0.03 0.03 0.06 0.11 0.14 0.15 0.14 0.13 0.12 0.12 0.12 0.13 0.16 0.18 0.19 0.23 0.21 0.19 0.15 0.13 0.10 0.07 0.05 0.06 0.15 0.17 0.08 0.04 0.02 0.02 0.02 0.03 0.02
0.01 0.02 0.02 0.04 0.05 0.08 0.08 0.07 0.06 0.04 0.06 0.06 0.10 0.13 0.15 0.17 0.20 0.22 0.20 0.18 0.14 0.14 0.16 0.20 0.19 0.25 0.24 0.23 0.16 0.13 0.12 0.10 0.10 0.08 0.14 0.24 0.14 0.05 0.03 0.02 0.02 0.04 0.04
0.02 0.02 0.03 0.04 0.06 0.10 0.11 0.11 0.10 0.09 0.08 0.09 0.11 0.14 0.16 0.18 0.21 0.23 0.24 0.22 0.20 0.20 0.20 0.19 0.19 0.24 0.24 0.23 0.22 0.20 0.21 0.18 0.17 0.18 0.12 0.17 0.18 0.10 0.04 0.03 0.03 0.04 0.06
0.04 0.06 0.06 0.05 0.08 0.11 0.13 0.14 0.14 0.11 0.10 0.09 0.09 0.10 0.13 0.17 0.21 0.24 0.25 0.24 0.25 0.24 0.22 0.21 0.20 0.22 0.22 0.23 0.23 0.19 0.22 0.23 0.19 0.20 0.14 0.13 0.16 0.15 0.11 0.07 0.04 0.04 0.04
0.04 0.06 0.07 0.06 0.07 0.10 0.11 0.10 0.10 0.10 0.11 0.10 0.11 0.13 0.15 0.19 0.22 0.24 0.24 0.25 0.26 0.24 0.22 0.20 0.25 0.27 0.26 0.24 0.19 0.16 0.15 0.14 0.15 0.15 0.15 0.11 0.10 0.10 0.13 0.11 0.05 0.03 0.03
0.03 0.04 0.04 0.05 0.05 0.06 0.08 0.08 0.09 0.09 0.10 0.12 0.13 0.16 0.19 0.23 0.24 0.24 0.25 0.25 0.24 0.23 0.24 0.25 0.28 0.30 0.29 0.23 0.16 0.15 0.16 0.10 0.14 0.16 0.13 0.14 0.11 0.07 0.07 0.10 0.10 0.04 0.02
0.01 0.02 0.03 0.04 0.06 0.05 0.06 0.07 0.07 0.08 0.10 0.15 0.17 0.15 0.16 0.20 0.26 0.31 0.33 0.34 0.29 0.22 0.21 0.24 0.27 0.27 0.24 0.20 0.18 0.15 0.12 0.08 0.09 0.09 0.07 0.09 0.09 0.07 0.04 0.07 0.09 0.07 0.04
0.01 0.02 0.03 0.04 0.04 0.03 0.04 0.05 0.05 0.06 0.08 0.10 0.12 0.12 0.12 0.14 0.21 0.28 0.33 0.34 0.34 0.28 0.23 0.21 0.21 0.23 0.22 0.21 0.18 0.15 0.13 0.11 0.08 0.05 0.04 0.03 0.03 0.04 0.05 0.07 0.10 0.10 0.07
0.00 0.00 0.01 0.01 0.02 0.02 0.02 0.03 0.05 0.05 0.06 0.07 0.07 0.07 0.07 0.08 0.13 0.17 0.22 0.26 0.31 0.32 0.29 0.24 0.20 0.20 0.19 0.19 0.17 0.14 0.10 0.09 0.08 0.05 0.03 0.03 0.03 0.03 0.06 0.09 0.11 0.11 0.08
0.00 0.00 0.00 0.00 0.01 0.02 0.02 0.02 0.03 0.02 0.03 0.04 0.04 0.04 0.04 0.04 0.06 0.09 0.11 0.15 0.20 0.27 0.28 0.24 0.22 0.21 0.20 0.18 0.16 0.13 0.09 0.09 0.10 0.09 0.06 0.02 0.03 0.02 0.05 0.05 0.08 0.09 0.10
0.00 0.00 0.00 0.00 0.01 0.01 0.01 0.02 0.02 0.02 0.02 0.02 0.02 0.02 0.03 0.03 0.04 0.06 0.07 0.09 0.12 0.17 0.23 0.24 0.24 0.22 0.21 0.19 0.15 0.13 0.10 0.09 0.08 0.09 0.09 0.07 0.05 0.02 0.01 0.02 0.03 0.05 0.10
0.00 0.00 0.00 0.00 0.00 0.01 0.01 0.01 0.02 0.02 0.02 0.01 0.02 0.02 0.02 0.03 0.03 0.03 0.04 0.06 0.08 0.11 0.16 0.21 0.24 0.24 0.23 0.21 0.18 0.16 0.15 0.12 0.08 0.07 0.08 0.07 0.07 0.05 0.02 0.01 0.01 0.02 0.06

GEFSSE_prec_meanprec_084.txt.gz
QPF
0.00 0.00 0.00 0.00 0.00 0.00 0.00 0.00 0.00 0.00 0.00 0.00 0.00 0.00 0.00 0.00 0.00 0.00 0.00 0.00 0.00 0.00 0.00 0.00 0.00 0.00 0.01 0.01 0.01 0.01 0.01 0.01 0.01 0.01 0.01 0.01 0.01 0.01 0.02 0.02 0.03 0.02 0.04
0.00 0.00 0.00 0.00 0.00 0.00 0.00 0.00 0.00 0.00 0.00 0.00 0.00 0.00 0.00 0.00 0.00 0.00 0.00 0.00 0.00 0.00 0.00 0.00 0.00 0.00 0.00 0.00 0.00 0.00 0.00 0.01 0.01 0.01 0.01 0.01 0.01 0.01 0.01 0.02 0.02 0.02 0.03
0.00 0.00 0.00 0.00 0.00 0.00 0.00 0.00 0.00 0.00 0.00 0.00 0.00 0.00 0.00 0.00 0.00 0.00 0.00 0.00 0.00 0.00 0.00 0.00 0.00 0.00 0.00 0.00 0.00 0.00 0.00 0.00 0.01 0.02 0.01 0.00 0.00 0.02 0.03 0.02 0.02 0.01 0.02
0.00 0.00 0.00 0.00 0.00 0.00 0.00 0.00 0.00 0.00 0.00 0.00 0.00 0.00 0.00 0.00 0.00 0.00 0.00 0.00 0.00 0.00 0.00 0.00 0.00 0.00 0.00 0.00 0.00 0.00 0.00 0.01 0.02 0.03 0.02 0.01 0.00 0.01 0.02 0.01 0.01 0.00 0.01
0.00 0.00 0.00 0.00 0.00 0.00 0.00 0.00 0.00 0.00 0.00 0.00 0.00 0.00 0.00 0.00 0.00 0.00 0.00 0.00 0.00 0.00 0.00 0.00 0.00 0.00 0.00 0.00 0.00 0.00 0.00 0.01 0.03 0.05 0.05 0.02 0.01 0.01 0.00 0.00 0.00 0.00 0.00
0.00 0.00 0.00 0.00 0.00 0.00 0.00 0.00 0.00 0.00 0.00 0.00 0.00 0.00 0.00 0.00 0.00 0.00 0.00 0.00 0.00 0.00 0.00 0.00 0.00 0.00 0.00 0.00 0.00 0.00 0.00 0.00 0.02 0.04 0.06 0.02 0.01 0.01 0.00 0.00 0.00 0.00 0.00
0.00 0.00 0.00 0.00 0.00 0.00 0.00 0.00 0.00 0.00 0.00 0.00 0.00 0.00 0.00 0.00 0.00 0.00 0.00 0.00 0.00 0.00 0.00 0.00 0.00 0.00 0.00 0.00 0.00 0.00 0.00 0.00 0.01 0.04 0.05 0.04 0.02 0.02 0.01 0.00 0.00 0.00 0.00
0.00 0.00 0.00 0.00 0.00 0.00 0.00 0.00 0.00 0.00 0.00 0.00 0.00 0.00 0.00 0.00 0.00 0.00 0.00 0.01 0.01 0.00 0.00 0.00 0.00 0.00 0.00 0.00 0.00 0.00 0.00 0.00 0.01 0.02 0.05 0.05 0.03 0.03 0.01 0.00 0.00 0.00 0.00
0.00 0.00 0.00 0.00 0.00 0.00 0.00 0.00 0.00 0.00 0.00 0.00 0.00 0.00 0.00 0.00 0.00 0.00 0.00 0.00 0.00 0.00 0.00 0.00 0.00 0.00 0.00 0.00 0.00 0.00 0.00 0.00 0.00 0.01 0.05 0.05 0.05 0.05 0.02 0.01 0.00 0.00 0.00
0.00 0.00 0.00 0.00 0.00 0.00 0.00 0.00 0.00 0.00 0.00 0.00 0.00 0.00 0.00 0.00 0.00 0.00 0.00 0.00 0.01 0.01 0.01 0.01 0.00 0.00 0.00 0.00 0.00 0.00 0.00 0.00 0.00 0.01 0.03 0.04 0.07 0.07 0.04 0.01 0.01 0.00 0.00
0.02 0.01 0.00 0.00 0.00 0.00 0.00 0.00 0.00 0.00 0.00 0.00 0.00 0.00 0.00 0.00 0.01 0.01 0.01 0.02 0.03 0.03 0.03 0.02 0.01 0.01 0.01 0.00 0.00 0.00 0.00 0.00 0.00 0.01 0.01 0.03 0.05 0.07 0.05 0.03 0.01 0.01 0.00
0.06 0.03 0.01 0.01 0.01 0.00 0.00 0.00 0.00 0.00 0.01 0.00 0.00 0.00 0.01 0.01 0.02 0.02 0.03 0.05 0.07 0.07 0.07 0.06 0.04 0.03 0.02 0.01 0.00 0.00 0.00 0.00 0.00 0.02 0.02 0.03 0.05 0.07 0.07 0.04 0.02 0.01 0.01
0.10 0.07 0.04 0.03 0.02 0.02 0.02 0.03 0.03 0.03 0.02 0.02 0.02 0.03 0.03 0.04 0.05 0.06 0.07 0.07 0.09 0.11 0.09 0.08 0.07 0.05 0.04 0.02 0.02 0.02 0.02 0.02 0.03 0.05 0.04 0.04 0.05 0.06 0.07 0.05 0.03 0.02 0.01
0.16 0.11 0.08 0.07 0.06 0.04 0.04 0.05 0.05 0.05 0.05 0.06 0.07 0.09 0.13 0.17 0.15 0.13 0.14 0.13 0.13 0.17 0.18 0.15 0.13 0.10 0.08 0.06 0.06 0.05 0.04 0.03 0.05 0.07 0.08 0.11 0.09 0.13 0.13 0.08 0.05 0.03 0.02
0.19 0.12 0.10 0.11 0.08 0.06 0.06 0.06 0.08 0.08 0.09 0.10 0.15 0.20 0.25 0.27 0.22 0.17 0.16 0.17 0.20 0.27 0.30 0.25 0.22 0.21 0.17 0.11 0.09 0.08 0.08 0.07 0.06 0.08 0.10 0.14 0.16 0.18 0.18 0.12 0.08 0.04 0.03
0.25 0.17 0.13 0.12 0.12 0.11 0.11 0.12 0.12 0.11 0.16 0.22 0.21 0.20 0.21 0.23 0.24 0.24 0.18 0.16 0.18 0.20 0.23 0.26 0.25 0.23 0.21 0.19 0.14 0.12 0.13 0.11 0.10 0.13 0.19 0.17 0.19 0.20 0.16 0.15 0.11 0.08 0.04
0.26 0.18 0.15 0.16 0.16 0.15 0.15 0.14 0.13 0.12 0.14 0.17 0.16 0.18 0.18 0.16 0.16 0.17 0.19 0.17 0.17 0.17 0.18 0.19 0.21 0.20 0.21 0.22 0.18 0.15 0.13 0.13 0.15 0.18 0.27 0.27 0.23 0.23 0.19 0.16 0.13 0.10 0.06
0.16 0.15 0.14 0.13 0.15 0.12 0.11 0.10 0.10 0.09 0.10 0.13 0.13 0.13 0.12 0.11 0.13 0.13 0.13 0.13 0.12 0.13 0.16 0.16 0.17 0.20 0.19 0.21 0.23 0.22 0.18 0.14 0.13 0.21 0.28 0.29 0.25 0.21 0.23 0.23 0.18 0.12 0.09
0.11 0.11 0.10 0.11 0.12 0.09 0.08 0.06 0.06 0.06 0.06 0.06 0.07 0.09 0.09 0.08 0.09 0.11 0.10 0.09 0.12 0.17 0.16 0.13 0.14 0.16 0.16 0.15 0.16 0.18 0.18 0.15 0.13 0.15 0.20 0.21 0.22 0.19 0.18 0.22 0.22 0.14 0.10
0.07 0.08 0.08 0.10 0.12 0.12 0.07 0.05 0.04 0.04 0.05 0.05 0.05 0.04 0.04 0.05 0.07 0.09 0.08 0.10 0.12 0.15 0.14 0.14 0.17 0.18 0.17 0.18 0.19 0.19 0.17 0.13 0.12 0.12 0.12 0.15 0.18 0.15 0.12 0.13 0.14 0.10 0.11
0.05 0.07 0.08 0.09 0.09 0.08 0.05 0.03 0.03 0.03 0.04 0.05 0.04 0.03 0.03 0.04 0.04 0.04 0.06 0.09 0.11 0.13 0.13 0.14 0.17 0.21 0.20 0.20 0.21 0.18 0.17 0.15 0.14 0.12 0.10 0.14 0.17 0.15 0.14 0.15 0.15 0.10 0.06
0.02 0.03 0.04 0.04 0.04 0.03 0.03 0.03 0.03 0.03 0.04 0.05 0.04 0.02 0.02 0.02 0.03 0.04 0.06 0.08 0.12 0.14 0.14 0.16 0.16 0.17 0.17 0.17 0.17 0.17 0.14 0.12 0.10 0.09 0.09 0.09 0.10 0.14 0.16 0.18 0.19 0.15 0.11
0.01 0.01 0.02 0.02 0.02 0.03 0.03 0.03 0.03 0.04 0.04 0.03 0.02 0.01 0.01 0.02 0.02 0.02 0.03 0.04 0.07 0.10 0.14 0.17 0.18 0.15 0.14 0.15 0.16 0.18 0.15 0.10 0.09 0.08 0.07 0.07 0.07 0.10 0.13 0.22 0.24 0.17 0.16
0.00 0.01 0.01 0.01 0.01 0.02 0.02 0.02 0.02 0.02 0.02 0.01 0.01 0.01 0.01 0.01 0.01 0.01 0.01 0.01 0.03 0.05 0.08 0.12 0.17 0.16 0.16 0.16 0.17 0.17 0.14 0.11 0.10 0.09 0.08 0.07 0.07 0.08 0.11 0.14 0.15 0.15 0.17
0.00 0.00 0.00 0.00 0.00 0.00 0.01 0.01 0.01 0.01 0.01 0.01 0.01 0.01 0.00 0.00 0.00 0.00 0.00 0.01 0.01 0.03 0.04 0.06 0.12 0.14 0.14 0.16 0.18 0.18 0.16 0.14 0.12 0.10 0.09 0.10 0.09 0.07 0.08 0.11 0.09 0.09 0.11
0.00 0.00 0.01 0.01 0.01 0.00 0.00 0.01 0.01 0.01 0.01 0.00 0.01 0.01 0.01 0.00 0.00 0.00 0.00 0.01 0.01 0.01 0.02 0.03 0.06 0.09 0.12 0.14 0.13 0.15 0.14 0.15 0.15 0.13 0.09 0.10 0.12 0.10 0.09 0.09 0.08 0.07 0.09

GEFSSE_prec_meanprec_090.txt.gz
QPF
0.00 0.00 0.00 0.00 0.00 0.00 0.00 0.00 0.00 0.00 0.00 0.00 0.00 0.00 0.00 0.00 0.00 0.00 0.00 0.00 0.00 0.00 0.00 0.00 0.00 0.00 0.00 0.00 0.01 0.01 0.01 0.01 0.01 0.01 0.01 0.01 0.01 0.02 0.03 0.03 0.02 0.03 0.05
0.00 0.00 0.00 0.00 0.00 0.00 0.00 0.00 0.00 0.00 0.00 0.00 0.00 0.00 0.00 0.00 0.00 0.00 0.00 0.00 0.00 0.00 0.00 0.00 0.00 0.00 0.00 0.00 0.00 0.00 0.00 0.00 0.01 0.01 0.01 0.01 0.03 0.03 0.04 0.02 0.02 0.02 0.05
0.00 0.00 0.00 0.00 0.00 0.00 0.00 0.00 0.00 0.00 0.00 0.00 0.00 0.00 0.00 0.00 0.00 0.00 0.00 0.00 0.00 0.00 0.00 0.00 0.00 0.00 0.00 0.00 0.00 0.00 0.00 0.00 0.01 0.01 0.00 0.00 0.02 0.05 0.04 0.02 0.02 0.02 0.03
0.00 0.00 0.00 0.00 0.00 0.00 0.00 0.00 0.00 0.00 0.00 0.00 0.00 0.00 0.00 0.00 0.00 0.00 0.00 0.00 0.00 0.00 0.00 0.00 0.00 0.00 0.00 0.00 0.00 0.00 0.00 0.01 0.01 0.01 0.00 0.00 0.01 0.03 0.03 0.02 0.02 0.01 0.01
0.00 0.00 0.00 0.00 0.00 0.00 0.00 0.00 0.00 0.00 0.00 0.00 0.00 0.00 0.00 0.00 0.00 0.00 0.00 0.00 0.00 0.00 0.00 0.00 0.00 0.00 0.00 0.00 0.00 0.00 0.00 0.01 0.01 0.01 0.00 0.00 0.01 0.02 0.02 0.01 0.01 0.01 0.01
0.00 0.00 0.00 0.00 0.00 0.00 0.00 0.00 0.00 0.00 0.00 0.00 0.00 0.00 0.00 0.00 0.00 0.00 0.00 0.00 0.00 0.00 0.01 0.01 0.01 0.00 0.00 0.00 0.00 0.00 0.00 0.01 0.01 0.01 0.00 0.00 0.01 0.02 0.01 0.01 0.01 0.01 0.01
0.00 0.00 0.00 0.00 0.00 0.00 0.00 0.00 0.00 0.00 0.00 0.00 0.00 0.00 0.00 0.00 0.00 0.00 0.00 0.00 0.00 0.00 0.01 0.01 0.01 0.00 0.00 0.00 0.00 0.00 0.00 0.01 0.01 0.01 0.00 0.00 0.00 0.02 0.01 0.01 0.01 0.00 0.00
0.00 0.00 0.00 0.01 0.00 0.00 0.00 0.00 0.00 0.00 0.00 0.00 0.00 0.00 0.00 0.00 0.00 0.00 0.00 0.00 0.00 0.00 0.00 0.00 0.00 0.00 0.00 0.00 0.00 0.00 0.01 0.01 0.01 0.01 0.00 0.00 0.01 0.02 0.02 0.01 0.01 0.01 0.00
0.00 0.00 0.00 0.00 0.01 0.01 0.00 0.00 0.00 0.00 0.00 0.00 0.01 0.01 0.01 0.01 0.01 0.01 0.01 0.01 0.01 0.01 0.01 0.01 0.01 0.01 0.01 0.01 0.01 0.01 0.00 0.01 0.01 0.01 0.01 0.00 0.02 0.03 0.02 0.01 0.01 0.01 0.01
0.01 0.00 0.00 0.00 0.00 0.00 0.00 0.01 0.00 0.01 0.00 0.01 0.01 0.01 0.01 0.01 0.01 0.02 0.02 0.02 0.03 0.03 0.03 0.03 0.02 0.01 0.01 0.01 0.01 0.01 0.01 0.01 0.01 0.01 0.01 0.01 0.01 0.03 0.04 0.03 0.01 0.01 0.01
0.03 0.02 0.01 0.01 0.00 0.00 0.00 0.01 0.01 0.01 0.01 0.01 0.01 0.01 0.01 0.01 0.01 0.02 0.02 0.03 0.03 0.04 0.04 0.05 0.04 0.02 0.02 0.02 0.01 0.01 0.01 0.01 0.01 0.01 0.01 0.01 0.02 0.04 0.06 0.05 0.03 0.02 0.02
0.08 0.06 0.04 0.01 0.01 0.01 0.01 0.02 0.01 0.01 0.01 0.01 0.01 0.02 0.02 0.01 0.01 0.02 0.03 0.05 0.06 0.09 0.10 0.09 0.08 0.06 0.04 0.03 0.02 0.02 0.01 0.01 0.01 0.01 0.01 0.01 0.02 0.05 0.10 0.09 0.06 0.04 0.02
0.10 0.09 0.07 0.04 0.04 0.05 0.05 0.06 0.05 0.04 0.04 0.04 0.04 0.04 0.04 0.04 0.05 0.04 0.04 0.04 0.06 0.11 0.14 0.14 0.15 0.12 0.09 0.06 0.04 0.03 0.02 0.02 0.01 0.01 0.01 0.01 0.02 0.04 0.09 0.11 0.08 0.06 0.04
0.17 0.14 0.09 0.07 0.08 0.10 0.10 0.10 0.10 0.11 0.10 0.10 0.10 0.11 0.10 0.09 0.08 0.07 0.08 0.09 0.10 0.13 0.17 0.17 0.17 0.18 0.15 0.11 0.08 0.05 0.04 0.03 0.01 0.01 0.01 0.01 0.02 0.04 0.06 0.09 0.10 0.08 0.06
0.18 0.24 0.21 0.17 0.16 0.17 0.19 0.21 0.22 0.20 0.18 0.21 0.20 0.16 0.13 0.13 0.13 0.14 0.13 0.13 0.12 0.14 0.17 0.22 0.23 0.21 0.19 0.18 0.15 0.10 0.07 0.05 0.03 0.02 0.01 0.02 0.03 0.04 0.06 0.10 0.10 0.10 0.09
0.22 0.27 0.29 0.25 0.26 0.28 0.28 0.30 0.30 0.28 0.23 0.23 0.23 0.18 0.16 0.16 0.17 0.18 0.17 0.15 0.14 0.12 0.14 0.17 0.20 0.22 0.22 0.24 0.21 0.15 0.12 0.11 0.08 0.05 0.04 0.04 0.04 0.05 0.09 0.13 0.14 0.13 0.12
0.21 0.25 0.27 0.27 0.33 0.38 0.34 0.29 0.27 0.24 0.20 0.21 0.21 0.17 0.16 0.15 0.16 0.17 0.15 0.14 0.13 0.12 0.11 0.11 0.14 0.17 0.20 0.19 0.15 0.13 0.12 0.13 0.12 0.09 0.08 0.06 0.04 0.05 0.09 0.13 0.16 0.16 0.16
0.15 0.17 0.19 0.21 0.26 0.31 0.28 0.23 0.20 0.17 0.15 0.14 0.13 0.12 0.14 0.15 0.17 0.16 0.11 0.09 0.09 0.08 0.08 0.08 0.09 0.10 0.11 0.13 0.13 0.12 0.11 0.12 0.12 0.10 0.09 0.06 0.05 0.04 0.07 0.14 0.17 0.19 0.18
0.11 0.14 0.14 0.15 0.16 0.19 0.22 0.24 0.21 0.18 0.15 0.12 0.10 0.10 0.10 0.10 0.09 0.08 0.06 0.07 0.07 0.07 0.06 0.06 0.08 0.09 0.09 0.09 0.09 0.09 0.09 0.11 0.09 0.08 0.08 0.05 0.05 0.04 0.05 0.10 0.17 0.20 0.21
0.11 0.12 0.11 0.09 0.11 0.15 0.19 0.18 0.17 0.15 0.14 0.13 0.12 0.10 0.08 0.06 0.06 0.05 0.05 0.06 0.06 0.06 0.06 0.05 0.06 0.07 0.07 0.08 0.09 0.09 0.09 0.10 0.10 0.08 0.06 0.06 0.05 0.05 0.06 0.08 0.10 0.14 0.21
0.06 0.05 0.06 0.07 0.10 0.10 0.10 0.10 0.10 0.11 0.11 0.10 0.08 0.06 0.05 0.05 0.05 0.06 0.06 0.06 0.06 0.04 0.04 0.04 0.04 0.04 0.05 0.06 0.07 0.08 0.08 0.08 0.10 0.09 0.07 0.06 0.05 0.06 0.06 0.08 0.09 0.08 0.09
0.03 0.03 0.04 0.04 0.04 0.04 0.04 0.05 0.07 0.09 0.09 0.09 0.09 0.08 0.06 0.04 0.02 0.02 0.03 0.04 0.04 0.04 0.04 0.04 0.03 0.04 0.05 0.07 0.07 0.08 0.07 0.06 0.06 0.08 0.09 0.07 0.06 0.08 0.07 0.07 0.09 0.07 0.05
0.01 0.01 0.01 0.01 0.02 0.02 0.02 0.03 0.03 0.04 0.03 0.05 0.07 0.07 0.04 0.01 0.01 0.01 0.01 0.02 0.03 0.04 0.06 0.07 0.06 0.05 0.05 0.07 0.09 0.10 0.09 0.05 0.04 0.04 0.06 0.07 0.07 0.07 0.06 0.06 0.06 0.06 0.08
0.00 0.00 0.00 0.01 0.01 0.01 0.01 0.01 0.01 0.01 0.01 0.01 0.02 0.02 0.02 0.01 0.02 0.01 0.01 0.02 0.02 0.02 0.02 0.03 0.04 0.06 0.05 0.06 0.08 0.09 0.10 0.08 0.07 0.05 0.05 0.07 0.07 0.07 0.06 0.06 0.05 0.05 0.08
0.00 0.00 0.00 0.01 0.01 0.00 0.00 0.00 0.00 0.00 0.00 0.00 0.01 0.01 0.01 0.01 0.01 0.01 0.01 0.00 0.00 0.01 0.01 0.01 0.01 0.02 0.04 0.05 0.08 0.10 0.11 0.09 0.08 0.07 0.05 0.06 0.07 0.06 0.06 0.06 0.06 0.06 0.07
0.00 0.01 0.00 0.00 0.00 0.00 0.00 0.00 0.00 0.00 0.00 0.00 0.00 0.00 0.00 0.00 0.00 0.00 0.00 0.00 0.00 0.00 0.00 0.00 0.00 0.01 0.01 0.02 0.03 0.05 0.08 0.11 0.10 0.08 0.06 0.06 0.06 0.06 0.07 0.07 0.06 0.05 0.07

GEFSSE_prec_meanprec_096.txt.gz
QPF
0.00 0.00 0.00 0.00 0.00 0.00 0.00 0.00 0.01 0.01 0.01 0.00 0.00 0.00 0.00 0.00 0.00 0.00 0.00 0.00 0.00 0.00 0.00 0.00 0.00 0.01 0.02 0.02 0.02 0.02 0.01 0.01 0.01 0.01 0.02 0.01 0.02 0.04 0.05 0.05 0.06 0.06 0.06
0.00 0.00 0.00 0.00 0.00 0.00 0.00 0.00 0.00 0.01 0.01 0.01 0.00 0.00 0.00 0.00 0.00 0.00 0.00 0.00 0.00 0.00 0.00 0.00 0.00 0.01 0.01 0.02 0.02 0.01 0.01 0.01 0.01 0.01 0.01 0.01 0.01 0.03 0.05 0.04 0.06 0.06 0.05
0.00 0.00 0.00 0.00 0.00 0.00 0.00 0.00 0.00 0.01 0.01 0.00 0.00 0.00 0.00 0.00 0.00 0.00 0.00 0.00 0.00 0.00 0.00 0.00 0.00 0.01 0.01 0.01 0.01 0.01 0.00 0.01 0.01 0.01 0.01 0.02 0.01 0.02 0.03 0.03 0.04 0.03 0.03
0.00 0.00 0.00 0.00 0.00 0.00 0.00 0.00 0.00 0.00 0.00 0.00 0.00 0.00 0.00 0.00 0.00 0.00 0.00 0.00 0.00 0.00 0.00 0.00 0.00 0.00 0.00 0.00 0.00 0.00 0.00 0.01 0.01 0.01 0.02 0.01 0.01 0.01 0.02 0.03 0.03 0.02 0.02
0.00 0.00 0.00 0.00 0.00 0.00 0.00 0.00 0.00 0.00 0.00 0.00 0.00 0.00 0.00 0.00 0.00 0.00 0.00 0.00 0.00 0.00 0.00 0.00 0.00 0.00 0.00 0.00 0.00 0.00 0.00 0.01 0.01 0.01 0.01 0.02 0.04 0.02 0.02 0.03 0.04 0.03 0.03
0.00 0.00 0.00 0.00 0.00 0.00 0.00 0.00 0.00 0.00 0.00 0.00 0.00 0.00 0.00 0.00 0.00 0.00 0.00 0.01 0.01 0.01 0.00 0.00 0.00 0.00 0.00 0.00 0.00 0.00 0.00 0.01 0.01 0.00 0.00 0.01 0.04 0.03 0.02 0.03 0.05 0.03 0.03
0.00 0.00 0.00 0.01 0.01 0.00 0.00 0.00 0.00 0.00 0.00 0.00 0.00 0.00 0.00 0.00 0.00 0.00 0.01 0.01 0.01 0.01 0.01 0.01 0.01 0.01 0.00 0.00 0.00 0.00 0.00 0.01 0.01 0.00 0.00 0.01 0.03 0.02 0.03 0.04 0.04 0.03 0.02
0.00 0.00 0.01 0.02 0.01 0.01 0.00 0.00 0.00 0.01 0.01 0.01 0.01 0.00 0.00 0.00 0.01 0.01 0.01 0.01 0.01 0.01 0.01 0.01 0.01 0.01 0.01 0.00 0.00 0.00 0.01 0.02 0.02 0.01 0.00 0.01 0.02 0.02 0.03 0.04 0.05 0.05 0.03
0.00 0.01 0.02 0.02 0.02 0.02 0.02 0.02 0.02 0.01 0.02 0.02 0.02 0.01 0.01 0.01 0.01 0.01 0.01 0.02 0.01 0.02 0.02 0.01 0.01 0.01 0.01 0.01 0.01 0.01 0.01 0.02 0.04 0.05 0.01 0.02 0.01 0.01 0.02 0.03 0.03 0.04 0.03
0.01 0.02 0.03 0.04 0.04 0.04 0.04 0.03 0.03 0.03 0.03 0.03 0.03 0.03 0.03 0.02 0.02 0.02 0.03 0.03 0.03 0.03 0.03 0.03 0.02 0.02 0.01 0.01 0.01 0.01 0.01 0.01 0.03 0.04 0.04 0.03 0.02 0.02 0.04 0.04 0.03 0.03 0.03
0.02 0.03 0.04 0.04 0.05 0.05 0.04 0.03 0.03 0.04 0.03 0.03 0.04 0.04 0.05 0.05 0.05 0.05 0.04 0.04 0.05 0.06 0.05 0.05 0.04 0.04 0.03 0.03 0.02 0.02 0.01 0.01 0.02 0.03 0.06 0.04 0.03 0.06 0.08 0.07 0.06 0.04 0.03
0.02 0.02 0.04 0.04 0.04 0.04 0.04 0.05 0.08 0.08 0.08 0.07 0.08 0.09 0.09 0.09 0.09 0.07 0.06 0.06 0.07 0.09 0.09 0.08 0.08 0.07 0.06 0.06 0.06 0.05 0.02 0.01 0.01 0.02 0.03 0.03 0.04 0.07 0.11 0.12 0.09 0.06 0.04
0.02 0.01 0.01 0.02 0.04 0.04 0.06 0.08 0.13 0.13 0.12 0.12 0.13 0.14 0.13 0.14 0.13 0.10 0.10 0.09 0.08 0.09 0.10 0.12 0.13 0.11 0.10 0.11 0.11 0.08 0.04 0.03 0.01 0.01 0.02 0.02 0.04 0.07 0.11 0.14 0.12 0.09 0.06
0.04 0.03 0.02 0.03 0.05 0.06 0.08 0.09 0.09 0.12 0.14 0.15 0.15 0.12 0.14 0.16 0.15 0.14 0.14 0.13 0.12 0.11 0.11 0.14 0.16 0.17 0.16 0.14 0.13 0.11 0.07 0.06 0.04 0.03 0.03 0.03 0.03 0.05 0.09 0.13 0.14 0.15 0.09
0.08 0.07 0.06 0.06 0.07 0.08 0.09 0.10 0.13 0.15 0.15 0.15 0.16 0.15 0.12 0.13 0.15 0.16 0.17 0.17 0.15 0.15 0.14 0.15 0.16 0.17 0.17 0.17 0.16 0.15 0.13 0.10 0.09 0.07 0.06 0.05 0.04 0.05 0.06 0.10 0.13 0.15 0.11
0.07 0.09 0.10 0.09 0.08 0.08 0.11 0.15 0.18 0.17 0.19 0.17 0.17 0.18 0.20 0.19 0.20 0.17 0.15 0.14 0.14 0.16 0.15 0.15 0.17 0.19 0.16 0.15 0.14 0.13 0.13 0.12 0.11 0.09 0.07 0.07 0.05 0.05 0.06 0.08 0.12 0.13 0.13
0.07 0.09 0.09 0.10 0.11 0.14 0.17 0.17 0.18 0.18 0.20 0.19 0.21 0.25 0.24 0.23 0.23 0.17 0.14 0.12 0.13 0.14 0.12 0.11 0.13 0.17 0.18 0.14 0.11 0.11 0.11 0.10 0.10 0.11 0.11 0.11 0.09 0.06 0.05 0.06 0.09 0.12 0.13
0.07 0.10 0.10 0.08 0.09 0.13 0.16 0.16 0.20 0.23 0.18 0.15 0.15 0.15 0.12 0.11 0.11 0.11 0.09 0.09 0.12 0.11 0.11 0.09 0.09 0.10 0.12 0.13 0.10 0.09 0.09 0.10 0.09 0.11 0.13 0.09 0.10 0.08 0.07 0.05 0.07 0.11 0.14
0.08 0.12 0.12 0.08 0.09 0.10 0.11 0.13 0.15 0.15 0.14 0.12 0.11 0.10 0.09 0.07 0.07 0.06 0.06 0.06 0.07 0.06 0.06 0.06 0.07 0.06 0.06 0.07 0.06 0.06 0.07 0.08 0.10 0.11 0.10 0.09 0.08 0.07 0.07 0.06 0.06 0.09 0.12
0.06 0.09 0.08 0.06 0.07 0.08 0.07 0.06 0.08 0.10 0.10 0.09 0.09 0.07 0.06 0.05 0.05 0.05 0.05 0.04 0.04 0.04 0.04 0.05 0.05 0.04 0.04 0.05 0.04 0.03 0.04 0.05 0.08 0.10 0.09 0.09 0.09 0.08 0.08 0.08 0.09 0.07 0.08
0.04 0.04 0.04 0.04 0.04 0.03 0.03 0.03 0.04 0.04 0.04 0.03 0.02 0.01 0.02 0.03 0.04 0.04 0.06 0.05 0.05 0.04 0.04 0.03 0.03 0.04 0.04 0.06 0.06 0.05 0.03 0.04 0.05 0.08 0.09 0.09 0.09 0.09 0.11 0.12 0.11 0.10 0.08
0.02 0.01 0.02 0.02 0.02 0.01 0.02 0.02 0.02 0.02 0.01 0.01 0.01 0.01 0.01 0.01 0.01 0.02 0.02 0.03 0.03 0.03 0.04 0.04 0.04 0.04 0.04 0.05 0.07 0.06 0.05 0.04 0.04 0.04 0.07 0.08 0.10 0.11 0.10 0.11 0.12 0.13 0.13
0.02 0.01 0.01 0.01 0.02 0.02 0.02 0.01 0.01 0.02 0.01 0.01 0.01 0.01 0.01 0.01 0.00 0.00 0.00 0.00 0.01 0.01 0.03 0.05 0.05 0.04 0.03 0.04 0.05 0.05 0.06 0.06 0.04 0.03 0.04 0.06 0.09 0.11 0.11 0.10 0.11 0.13 0.15
0.00 0.01 0.01 0.02 0.02 0.02 0.01 0.02 0.02 0.02 0.02 0.01 0.01 0.01 0.01 0.01 0.01 0.01 0.00 0.00 0.01 0.02 0.02 0.03 0.03 0.03 0.03 0.04 0.04 0.04 0.05 0.06 0.07 0.05 0.03 0.04 0.05 0.06 0.09 0.10 0.10 0.11 0.13
0.00 0.01 0.01 0.01 0.01 0.01 0.01 0.02 0.02 0.01 0.01 0.01 0.00 0.00 0.00 0.00 0.00 0.00 0.00 0.01 0.01 0.01 0.01 0.01 0.02 0.02 0.03 0.04 0.05 0.06 0.05 0.05 0.06 0.06 0.05 0.04 0.04 0.04 0.06 0.09 0.12 0.12 0.12
0.00 0.00 0.01 0.01 0.01 0.01 0.01 0.01 0.01 0.01 0.01 0.00 0.00 0.00 0.00 0.00 0.00 0.00 0.00 0.00 0.00 0.00 0.00 0.01 0.01 0.02 0.02 0.03 0.04 0.07 0.08 0.07 0.06 0.06 0.05 0.05 0.05 0.05 0.06 0.07 0.10 0.13 0.14